Weather History for Bogalusa, LA

Change the Weather History Date:

Saturday, September 1, 2012

  Actual Average Record
Temperature  
Mean Temperature 82 °F -  
Max Temperature 90 °F 91 °F 94 °F (2013)
Min Temperature 75 °F 69 °F 72 °F (2013)
Cooling Degree Days 18    
Growing Degree Days 32 (Base 50)    
Moisture  
Dew Point 75 °F    
Average Humidity 84    
Maximum Humidity 100    
Minimum Humidity 49    
Precipitation  
Precipitation 0.02 in - - ()
Sea Level Pressure  
Sea Level Pressure 30.12 in    
Wind  
Wind Speed 4 mph ()    
Max Wind Speed 10 mph    
Max Gust Speed 23 mph    
Visibility 8.6 miles    
Events Thunderstorm    
Averages and records for this station are not official NWS values.
T = Trace of Precipitation, MM = Missing Value Source: Averaged Metar Reports

Daily Weather History Graph

Daily Weather History Graph

Search for Another Location

Airport:

Trip Planner

Search our weather history database for the weather conditions in past years. The results will help you decide how hot, cold, wet, or windy it might be!

Date:

Astronomy

Sep. 01, 2012 Rise Set
Actual Time 6:36 AM CDT 7:21 PM CDT
Civil Twilight 6:11 AM CDT 7:46 PM CDT
Nautical Twilight 5:42 AM CDT 8:15 PM CDT
Astronomical Twilight 5:12 AM CDT 8:44 PM CDT
Moon 7:49 PM CDT (9/1) 7:34 AM CDT (9/1)
Length of Visible Light 13h 34m
Length of Day
12h 45m
Full, 99% of the Moon is Illuminated
Sep 1
Full
Sep 8
Last Quarter
Sep 15
New
Sep 22
First Quarter
Sep 29
Full

Hourly Weather History & Observations

Time (CDT) Temp. Heat Index Dew Point Humidity Pressure Visibility Wind Dir Wind Speed Gust Speed Precip Events Conditions
12:15 AM 78.8 °F - 78.8 °F 100% 30.13 in 7.0 mi South 4.6 mph - N/A   Mostly Cloudy
12:35 AM 78.6 °F - 78.6 °F 100% 30.13 in 7.0 mi SSE 3.5 mph - N/A   Mostly Cloudy
12:55 AM 78.8 °F - 78.8 °F 100% 30.12 in 7.0 mi SSE 3.5 mph - 0.01 in   Overcast
1:15 AM 79.2 °F - 79.2 °F 100% 30.13 in 7.0 mi South 8.1 mph 23.0 mph 0.01 in   Overcast
1:35 AM 78.8 °F - 78.8 °F 100% 30.12 in 7.0 mi South 5.8 mph - 0.01 in   Mostly Cloudy
1:55 AM 78.4 °F - 78.4 °F 100% 30.12 in 7.0 mi South 3.5 mph - 0.01 in   Scattered Clouds
2:15 AM 78.4 °F - 78.4 °F 100% 30.12 in 7.0 mi South 4.6 mph - N/A   Mostly Cloudy
2:35 AM 78.4 °F - 78.4 °F 100% 30.12 in 7.0 mi South 5.8 mph - N/A   Light Drizzle
2:55 AM 78.4 °F - 78.4 °F 100% 30.11 in 7.0 mi SSE 4.6 mph - N/A   Overcast
3:35 AM 78.3 °F - 78.3 °F 100% 30.11 in 7.0 mi South 5.8 mph - N/A   Overcast
3:55 AM 78.3 °F - 78.3 °F 100% 30.11 in 7.0 mi South 4.6 mph - N/A   Overcast
4:15 AM 78.3 °F - 78.3 °F 100% 30.11 in 7.0 mi Calm Calm - N/A   Overcast
4:55 AM 77.9 °F - 77.9 °F 100% 30.11 in 7.0 mi SSW 5.8 mph - N/A   Overcast
5:15 AM 77.9 °F - 77.9 °F 100% 30.11 in 5.0 mi SSW 3.5 mph - N/A   Overcast
5:35 AM 78.1 °F - 78.1 °F 100% 30.11 in 5.0 mi SSW 5.8 mph - N/A   Overcast
5:55 AM 78.1 °F - 78.1 °F 100% 30.12 in 5.0 mi SSW 3.5 mph - N/A   Overcast
6:15 AM 77.9 °F - 77.9 °F 100% 30.13 in 4.0 mi SSW 3.5 mph - N/A   Overcast
6:35 AM 77.9 °F - 77.9 °F 100% 30.13 in 5.0 mi SSW 4.6 mph - N/A   Overcast
6:55 AM 78.1 °F - 78.1 °F 100% 30.14 in 4.0 mi SSW 5.8 mph - N/A   Overcast
7:15 AM 78.1 °F - 78.1 °F 100% 30.15 in 4.0 mi SSW 3.5 mph - N/A   Overcast
7:35 AM 78.1 °F - 78.1 °F 100% 30.16 in 3.0 mi SSW 4.6 mph - N/A   Overcast
7:55 AM 78.4 °F - 78.4 °F 100% 30.16 in 7.0 mi SSW 5.8 mph - N/A   Overcast
8:15 AM 79.0 °F - 79.0 °F 100% 30.16 in 7.0 mi SSW 3.5 mph - N/A   Overcast
8:35 AM 79.7 °F - 79.7 °F 100% 30.16 in 7.0 mi SSW 5.8 mph - N/A   Overcast
8:55 AM 80.6 °F 89.3 °F 80.6 °F 100% 30.16 in 10.0 mi SW 3.5 mph - N/A   Overcast
9:15 AM 81.1 °F 91.3 °F 81.1 °F 100% 30.17 in 10.0 mi SSW 3.5 mph - N/A   Mostly Cloudy
9:35 AM 82.0 °F 93.1 °F 80.6 °F 95% 30.17 in 10.0 mi SW 8.1 mph - N/A   Overcast
9:55 AM 82.4 °F 95.1 °F 81.3 °F 97% 30.18 in 10.0 mi SW 3.5 mph - N/A   Scattered Clouds
10:15 AM 83.3 °F 95.7 °F 80.2 °F 90% 30.18 in 10.0 mi Calm Calm - N/A   Overcast
10:35 AM 83.5 °F 97.1 °F 81.0 °F 92% 30.18 in 10.0 mi Calm Calm - N/A   Overcast
10:55 AM 85.6 °F 96.4 °F 77.0 °F 75% 30.18 in 10.0 mi South 3.5 mph - N/A   Overcast
11:15 AM 85.8 °F 93.4 °F 73.9 °F 67% 30.18 in 10.0 mi West 4.6 mph - N/A   Mostly Cloudy
11:35 AM 84.9 °F 91.4 °F 72.7 °F 67% 30.17 in 10.0 mi West 4.6 mph - N/A   Unknown
11:55 AM 85.6 °F 92.6 °F 73.2 °F 66% 30.17 in 10.0 mi WSW 5.8 mph - N/A   Unknown
12:15 PM 85.6 °F 92.2 °F 72.7 °F 65% 30.16 in 10.0 mi SW 5.8 mph - N/A   Unknown
12:35 PM 87.6 °F 94.3 °F 72.3 °F 60% 30.15 in 10.0 mi SSW 5.8 mph - N/A   Clear
12:55 PM 88.9 °F 96.1 °F 72.3 °F 58% 30.15 in 10.0 mi SSW 8.1 mph - N/A   Clear
1:15 PM 88.9 °F 95.1 °F 71.4 °F 56% 30.14 in 10.0 mi SW 5.8 mph - N/A   Scattered Clouds
1:55 PM 89.1 °F 94.6 °F 70.3 °F 54% 30.12 in 10.0 mi SW 9.2 mph - N/A   Scattered Clouds
2:15 PM 90.1 °F 96.3 °F 70.9 °F 53% 30.10 in 10.0 mi SSW 10.4 mph - N/A   Scattered Clouds
2:35 PM 89.1 °F 93.7 °F 69.6 °F 52% 30.10 in 10.0 mi SW 8.1 mph - N/A   Scattered Clouds
2:55 PM 90.3 °F 95.7 °F 69.8 °F 51% 30.09 in 10.0 mi SSW 6.9 mph - N/A   Scattered Clouds
3:15 PM 90.5 °F 96.0 °F 70.2 °F 51% 30.08 in 10.0 mi SW 9.2 mph - N/A   Scattered Clouds
3:35 PM 90.1 °F 95.3 °F 69.6 °F 51% 30.08 in 10.0 mi SW 9.2 mph - N/A   Scattered Clouds
3:55 PM 90.3 °F 95.2 °F 69.3 °F 50% 30.08 in 10.0 mi WSW 9.2 mph - N/A   Scattered Clouds
4:15 PM 90.0 °F 94.1 °F 68.4 °F 49% 30.08 in 10.0 mi SSW 6.9 mph - N/A   Scattered Clouds
4:35 PM 90.5 °F 95.1 °F 68.7 °F 49% 30.08 in 10.0 mi SW 9.2 mph - N/A Thunderstorm Clear
4:55 PM 89.6 °F 94.3 °F 69.1 °F 51% 30.07 in 10.0 mi SSW 8.1 mph - N/A   Clear
5:15 PM 88.0 °F 92.5 °F 69.3 °F 54% 30.08 in 10.0 mi SW 6.9 mph - N/A Thunderstorm Clear
5:35 PM 86.5 °F 91.8 °F 70.5 °F 59% 30.09 in 10.0 mi West 4.6 mph - N/A Thunderstorm Thunderstorm
5:55 PM 84.0 °F 89.6 °F 72.0 °F 67% 30.09 in 10.0 mi WNW 8.1 mph - N/A   Scattered Clouds
6:15 PM 82.4 °F 87.4 °F 72.0 °F 71% 30.08 in 10.0 mi Calm Calm - N/A   Scattered Clouds
6:35 PM 80.4 °F 84.4 °F 71.8 °F 75% 30.09 in 10.0 mi NW 5.8 mph - N/A   Clear
6:55 PM 79.0 °F - 72.1 °F 79% 30.09 in 10.0 mi NW 3.5 mph - N/A   Clear
7:15 PM 78.1 °F - 75.6 °F 92% 30.09 in 10.0 mi West 3.5 mph - N/A   Scattered Clouds
7:35 PM 78.3 °F - 72.7 °F 83% 30.09 in 10.0 mi Calm Calm - N/A   Mostly Cloudy
7:55 PM 77.9 °F - 72.5 °F 83% 30.09 in 10.0 mi WNW 3.5 mph - N/A   Scattered Clouds
8:15 PM 77.9 °F - 74.3 °F 89% 30.10 in 10.0 mi Calm Calm - N/A   Mostly Cloudy
8:55 PM 77.2 °F - 77.2 °F 100% 30.10 in 10.0 mi Calm Calm - N/A   Scattered Clouds
9:15 PM 77.0 °F - 77.0 °F 100% 30.10 in 10.0 mi Calm Calm - N/A   Clear
9:35 PM 77.0 °F - 77.0 °F 100% 30.11 in 10.0 mi Calm Calm - N/A   Scattered Clouds
9:55 PM 77.0 °F - 77.0 °F 100% 30.11 in 10.0 mi Calm Calm - N/A   Scattered Clouds
10:15 PM 76.1 °F - 76.1 °F 100% 30.10 in 10.0 mi South 3.5 mph - N/A   Clear
10:55 PM 75.4 °F - 75.4 °F 100% 30.10 in 10.0 mi Calm Calm - N/A   Clear
11:15 PM 75.0 °F - 75.0 °F 100% 30.10 in 10.0 mi Calm Calm - N/A   Clear
11:55 PM 75.2 °F - 75.2 °F 100% 30.10 in 10.0 mi Calm Calm - N/A   Clear